Tracking 22093 objects as of 18-Jan-2021
HD Live streaming from Space Station
objects crossing your sky now

SSA

Track SSA now!
10-day predictions
SSA is classified as:


NORAD ID: 13844
Int'l Code: 1983-008E
Perigee: 389.7 km
Apogee: 1,724.4 km
Inclination: 63.3 °
Period: 106.2 minutes
Semi major axis: 7428 km
RCS: Unknown
Launch date: February 9, 1983
Source: United States (US)
Launch site: AIR FORCE WESTERN TEST RANGE (AFWTR)
aabbcc
Your satellite tracking list
Your tracking list is empty




NASA's NSSDC Master Catalog

Two Line Element Set (TLE):
1 13844U 83008E   21017.80877079  .00000655  00000-0  66555-4 0  9993
2 13844  63.2995 336.0288 0898361  99.3880 270.9738 13.56095730 88908
Source of the keplerian elements: McCants